User: anonymous   Login
Location: Unspecified
(0.0000°N, 0.0000°E)
Time: 00:27:29
(UTC+00:00)
Language:

NOSS 8 (A) - Orbit

View from above orbital plane
View from above orbital plane
View from above satellite
View from above satellite

Ground track
Ground track

The orbit data is extracted from the following two-line orbital elements,

1 17997U 87043A   17075.79137367 0.00001300  00000-0  17590-3 0    00
2 17997  63.3150 327.1579 0866705  45.3337 314.6662 13.47181422    05
Epoch (UTC): 16 March 2017 18:59:34
Eccentricity: 0.0866705
inclination: 63.3150°
perigee height: 436 km
apogee height: 1729 km
right ascension of ascending node: 327.1579°
argument of perigee: 45.3337°
revolutions per day: 13.47181422
mean anomaly at epoch: 314.6662°
orbit number at epoch: 0

The dashed part of the orbit path shows where the satellite is in the earth's shadow,  

DLR